CW5478 Weather Reports


Display with metric or nautical units.
time (UTC)temp
F
wind
direction
speed
MPH
gust
MPH
rain 1hr
in
rain 24hr
in
rain mn
in
humidity
%
barometer
mb
20260506091304 29 0 3.0 5.0 0.00 0.06 0.00 90 1017.9
20260506090803 29 0 2.0 3.0 0.00 0.06 0.00 90 1017.9
20260506090303 29 0 4.0 7.0 0.00 0.06 0.00 90 1017.9
20260506085804 29 22 1.0 3.0 0.00 0.06 0.00 90 1017.9
20260506085305 29 22 3.0 5.0 0.00 0.06 0.00 90 1017.9
20260506084803 29 0 3.0 6.0 0.00 0.06 0.00 90 1017.9
20260506084303 29 0 4.0 5.0 0.00 0.06 0.00 90 1017.9
20260506083803 29 0 5.0 5.0 0.00 0.06 0.00 90 1017.9
20260506083303 29 45 3.0 5.0 0.00 0.06 0.00 90 1017.9
20260506082803 29 45 4.0 5.0 0.00 0.06 0.00 90 1017.9
20260506082305 29 45 3.0 6.0 0.00 0.06 0.00 90 1017.9
20260506081803 29 45 2.0 5.0 0.00 0.06 0.00 90 1017.9
20260506081304 29 45 3.0 3.0 0.00 0.06 0.00 90 1017.9
20260506080804 29 45 2.0 3.0 0.00 0.06 0.00 90 1017.9
20260506080303 29 45 3.0 5.0 0.00 0.06 0.00 90 1017.9
20260506073304 29 45 2.0 5.0 0.00 0.06 0.00 90 1018.2
20260506072305 29 0 5.0 6.0 0.00 0.06 0.00 90 1018.2
20260506071803 29 0 5.0 7.0 0.00 0.06 0.00 90 1018.2
20260506071303 29 0 5.0 7.0 0.00 0.06 0.00 90 1018.2
20260506070304 29 23 6.0 7.0 0.00 0.06 0.00 90 1018.4
20260506062305 29 0 7.0 9.0 0.00 0.06 0.00 90 1018.4
20260506061803 29 0 7.0 9.0 0.00 0.06 0.00 90 1018.2
20260506061303 29 344 6.0 10.0 0.00 0.06 0.00 90 1018.2
20260506060903 30 0 7.0 10.0 0.00 0.06 0.00 90 1018.2
20260506060304 29 321 6.0 8.0 0.00 0.06 0.00 90 1018.2
20260506051304 30 0 7.0 9.0 0.00 0.06 0.06 90 1017.9
20260506050803 30 0 6.0 9.0 0.00 0.06 0.06 90 1018.2
20260506050304 30 0 6.0 8.0 0.00 0.06 0.06 90 1018.2
20260506043804 30 0 8.0 10.0 0.00 0.06 0.06 89 1018.2
20260506042804 30 0 7.0 8.0 0.00 0.06 0.06 89 1018.1
20260506041304 30 0 7.0 10.0 0.00 0.06 0.06 89 1017.9
20260506040304 30 354 10.0 13.0 0.00 0.06 0.06 89 1017.9
20260506035306 30 353 9.0 12.0 0.01 0.06 0.06 89 1017.9
20260506034803 30 0 10.0 13.0 0.01 0.06 0.06 88 1017.9
20260506034304 31 347 10.0 13.0 0.01 0.06 0.06 88 1017.7
20260506033804 31 357 11.0 15.0 0.01 0.06 0.06 88 1017.9
20260506032804 33 0 7.0 10.0 0.01 0.06 0.06 88 1017.6
20260506032305 33 30 6.0 8.0 0.01 0.06 0.06 87 1017.7
20260506031803 33 315 7.0 13.0 0.01 0.06 0.06 87 1017.6
20260506031304 33 296 9.0 13.0 0.02 0.06 0.06 87 1017.6
20260506030804 33 315 9.0 14.0 0.02 0.06 0.06 86 1017.2
20260506030304 34 292 12.0 15.0 0.02 0.06 0.06 86 1017.2
20260506025305 34 315 11.0 16.0 0.01 0.05 0.05 85 1017.1
20260506024804 34 315 10.0 14.0 0.01 0.05 0.05 85 1016.9
20260506024304 34 308 13.0 18.0 0.01 0.05 0.05 85 1016.7
20260506023803 35 315 12.0 17.0 0.01 0.05 0.05 86 1016.7
20260506023303 34 315 10.0 14.0 0.01 0.05 0.05 86 1016.6
20260506022804 34 313 13.0 17.0 0.01 0.05 0.05 87 1016.2
20260506022305 33 210 6.0 12.0 0.01 0.05 0.05 87 1016.4
20260506021803 33 223 8.0 15.0 0.01 0.05 0.05 87 1016.2
20260506021304 33 167 15.0 21.0 0.01 0.04 0.04 87 1016.2
20260506020803 33 146 16.0 21.0 0.01 0.04 0.04 86 1016.2
20260506020303 33 143 16.0 20.0 0.01 0.04 0.04 86 1016.2
20260506015803 33 135 12.0 16.0 0.01 0.04 0.04 86 1016.2
20260506015305 33 141 13.0 18.0 0.01 0.04 0.04 86 1015.9
20260506014803 33 150 10.0 15.0 0.01 0.04 0.04 86 1016.2
20260506014303 33 152 11.0 16.0 0.02 0.04 0.04 86 1016.2
20260506013804 33 135 16.0 23.0 0.02 0.04 0.04 86 1016.1
20260506013303 34 135 16.0 20.0 0.02 0.04 0.04 85 1016.2
20260506012803 34 135 11.0 17.0 0.03 0.04 0.04 85 1016.0
20260506012307 34 161 14.0 21.0 0.03 0.04 0.04 84 1016.2
20260506011803 34 140 16.0 22.0 0.03 0.04 0.04 84 1015.7
20260506011303 34 139 17.0 24.0 0.02 0.03 0.03 84 1015.7
20260506010804 34 143 14.0 20.0 0.02 0.03 0.03 84 1016.1
20260506005803 34 135 14.0 22.0 0.03 0.03 0.03 86 1015.5
20260506005305 34 151 13.0 18.0 0.03 0.03 0.03 87 1015.5
20260506004803 34 157 9.0 15.0 0.03 0.03 0.03 88 1015.5
20260506003803 34 147 10.0 13.0 0.02 0.02 0.02 88 1015.9
20260506003304 34 180 9.0 13.0 0.02 0.02 0.02 89 1015.9
20260506002305 34 180 8.0 12.0 0.01 0.01 0.01 88 1015.9
20260506001804 34 140 8.0 10.0 0.01 0.01 0.01 88 1016.2
20260506001304 34 135 7.0 8.0 0.01 0.01 0.01 88 1016.2
20260506000804 34 135 5.0 6.0 0.01 0.01 0.01 88 1016.2
20260506000303 33 135 3.0 9.0 0.01 0.01 0.01 88 1016.2
20260505235803 33 135 7.0 10.0 0.00 0.00 0.00 88 1016.2
20260505234803 33 180 3.0 5.0 0.00 0.00 0.00 88 1016.2
20260505234304 34 337 0.0 0.0 0.00 0.00 0.00 88 1016.2
20260505233304 33 337 0.0 1.0 0.00 0.00 0.00 88 1016.6
20260505232804 33 337 0.0 0.0 0.00 0.00 0.00 88 1016.6
20260505232305 33 337 0.0 1.0 0.00 0.00 0.00 88 1016.6
20260505230803 33 337 3.0 3.0 0.00 0.00 0.00 88 1016.6
20260505230303 33 315 2.0 2.0 0.00 0.00 0.00 88 1016.6
20260505225805 33 315 2.0 2.0 0.00 0.00 0.00 88 1016.6
20260505224304 33 315 3.0 5.0 0.00 0.00 0.00 88 1016.6
20260505223803 33 315 5.0 8.0 0.00 0.00 0.00 88 1016.6
20260505222803 33 315 6.0 8.0 0.00 0.00 0.00 88 1016.6
20260505221803 33 315 7.0 9.0 0.00 0.00 0.00 88 1016.4
20260505221304 33 315 7.0 10.0 0.00 0.00 0.00 88 1016.6
20260505220804 33 330 6.0 8.0 0.00 0.00 0.00 88 1016.4
20260505220304 33 315 5.0 6.0 0.00 0.00 0.00 88 1016.6
20260505215803 33 315 5.0 6.0 0.00 0.00 0.00 88 1016.6
20260505215305 33 0 5.0 6.0 0.00 0.00 0.00 88 1016.6
20260505214303 34 315 5.0 10.0 0.00 0.00 0.00 88 1016.6
20260505213803 34 332 7.0 9.0 0.00 0.00 0.00 88 1016.6
20260505213304 34 330 6.0 8.0 0.00 0.00 0.00 88 1016.6
20260505212803 34 315 6.0 9.0 0.00 0.00 0.00 88 1016.7
20260505212305 34 335 7.0 9.0 0.00 0.00 0.00 88 1016.6
20260505211804 34 343 7.0 12.0 0.00 0.00 0.00 88 1016.9
20260505210803 34 327 7.0 12.0 0.00 0.00 0.00 88 1016.9
20260505210303 34 339 9.0 12.0 0.00 0.00 0.00 87 1016.9
20260505205804 34 341 9.0 14.0 0.00 0.00 0.00 87 1017.0
20260505204803 34 352 10.0 13.0 0.00 0.00 0.00 87 1017.1
20260505203803 35 358 10.0 14.0 0.00 0.00 0.00 85 1017.2
20260505203304 35 355 9.0 13.0 0.00 0.00 0.00 85 1017.2
20260505202306 36 336 10.0 13.0 0.00 0.00 0.00 83 1017.2
20260505201804 37 0 13.0 16.0 0.00 0.00 0.00 81 1017.1
20260505201304 38 349 13.0 17.0 0.00 0.00 0.00 79 1017.2
20260505200804 38 0 13.0 16.0 0.00 0.00 0.00 78 1017.2
20260505200304 39 355 12.0 17.0 0.00 0.00 0.00 77 1016.9
20260505195804 39 349 13.0 17.0 0.00 0.00 0.00 75 1016.9
20260505195305 41 0 15.0 20.0 0.00 0.00 0.00 73 1016.9
20260505194803 42 352 14.0 21.0 0.00 0.00 0.00 71 1016.9
20260505194303 42 0 13.0 20.0 0.00 0.00 0.00 71 1016.7
20260505193804 43 1 14.0 18.0 0.00 0.00 0.00 70 1016.9
20260505192803 46 1 12.0 16.0 0.00 0.00 0.00 67 1016.6
20260505192305 46 7 11.0 15.0 0.00 0.00 0.00 67 1016.9
20260505190804 47 354 9.0 13.0 0.00 0.00 0.00 64 1016.9
20260505190304 46 1 5.0 8.0 0.00 0.00 0.00 65 1017.0
20260505185803 45 318 3.0 8.0 0.00 0.00 0.00 66 1017.2
20260505184803 44 340 6.0 8.0 0.00 0.00 0.00 68 1017.2
20260505184304 44 24 5.0 9.0 0.00 0.00 0.00 69 1017.2
20260505183804 43 0 5.0 10.0 0.00 0.00 0.00 69 1017.2
20260505183304 43 325 5.0 10.0 0.00 0.00 0.00 68 1017.2
20260505182803 46 315 9.0 13.0 0.00 0.00 0.00 65 1017.2
20260505181804 46 225 1.0 9.0 0.00 0.00 0.00 66 1017.6
20260505181304 45 27 5.0 8.0 0.00 0.00 0.00 69 1017.6
20260505180803 44 135 3.0 9.0 0.00 0.00 0.00 70 1017.6
20260505175804 42 321 1.0 6.0 0.00 0.00 0.00 71 1017.8
20260505175305 42 0 5.0 9.0 0.00 0.00 0.00 72 1017.6
20260505174804 42 45 8.0 12.0 0.00 0.00 0.00 72 1017.6
20260505174304 41 36 6.0 10.0 0.00 0.00 0.00 73 1017.6
20260505173803 41 45 7.0 13.0 0.00 0.00 0.00 73 1017.8
20260505173303 41 17 8.0 12.0 0.00 0.00 0.00 73 1017.7
20260505172804 42 29 9.0 13.0 0.00 0.00 0.00 72 1017.9
20260505172305 42 0 6.0 12.0 0.00 0.00 0.00 72 1017.9
20260505171804 42 28 9.0 12.0 0.00 0.00 0.00 72 1017.9
20260505171304 42 27 9.0 13.0 0.00 0.00 0.00 73 1017.9
20260505170804 42 8 7.0 12.0 0.00 0.00 0.00 73 1017.9
20260505170304 41 358 5.0 10.0 0.00 0.00 0.00 73 1017.9
20260505165804 41 0 7.0 12.0 0.00 0.00 0.00 74 1017.9
20260505164804 41 0 9.0 13.0 0.00 0.00 0.00 73 1017.9
20260505164304 41 0 9.0 15.0 0.00 0.00 0.00 73 1017.9
20260505163804 41 0 10.0 14.0 0.00 0.00 0.00 72 1017.9
20260505163303 41 0 9.0 14.0 0.00 0.00 0.00 72 1018.0
20260505162306 42 359 9.0 16.0 0.00 0.00 0.00 71 1018.0
20260505161804 43 343 7.0 12.0 0.00 0.00 0.00 70 1018.2
20260505161304 43 0 6.0 9.0 0.00 0.00 0.00 71 1018.1
20260505160303 42 13 3.0 7.0 0.00 0.00 0.00 73 1018.2
20260505153304 39 0 6.0 8.0 0.00 0.00 0.00 76 1018.4
20260505152803 39 324 6.0 8.0 0.00 0.00 0.00 76 1018.3
20260505152305 39 322 6.0 8.0 0.00 0.00 0.00 77 1018.2
20260505151804 39 337 6.0 8.0 0.00 0.00 0.00 77 1018.6
20260505151304 39 359 6.0 8.0 0.00 0.00 0.00 78 1018.6
20260505150804 39 315 6.0 8.0 0.00 0.00 0.00 77 1018.3
20260505150304 39 0 6.0 8.0 0.00 0.00 0.00 77 1018.6
20260505140303 40 357 6.0 10.0 0.00 0.00 0.00 76 1018.7
20260505124803 37 315 3.0 7.0 0.00 0.00 0.00 81 1018.2
20260505124302 37 270 3.0 5.0 0.00 0.00 0.00 82 1018.2
20260505123303 36 270 3.0 5.0 0.00 0.00 0.00 82 1017.9
20260505122802 36 270 3.0 5.0 0.00 0.00 0.00 83 1017.9
20260505122305 36 270 5.0 6.0 0.00 0.00 0.00 83 1017.9
20260505121802 36 315 5.0 7.0 0.00 0.00 0.00 83 1017.9
20260505121302 36 315 5.0 8.0 0.00 0.00 0.00 83 1018.0
20260505120802 36 315 6.0 9.0 0.00 0.00 0.00 82 1017.9
20260505120302 36 315 6.0 8.0 0.00 0.00 0.00 81 1017.9
20260505115803 37 315 7.0 12.0 0.00 0.00 0.00 80 1018.2
20260505115304 37 315 7.0 10.0 0.00 0.00 0.00 79 1017.9
20260505114803 37 318 5.0 9.0 0.00 0.00 0.00 78 1017.9
20260505113802 37 270 8.0 10.0 0.00 0.00 0.00 77 1017.9
20260505113302 38 292 7.0 10.0 0.00 0.00 0.00 76 1017.9
20260505112802 38 324 6.0 8.0 0.00 0.00 0.00 74 1017.9
20260505112304 38 315 6.0 8.0 0.00 0.00 0.00 73 1017.9
20260505111802 39 315 5.0 7.0 0.00 0.00 0.00 72 1017.6
20260505111302 39 315 6.0 7.0 0.00 0.00 0.00 72 1017.7
20260505110802 39 292 5.0 6.0 0.00 0.00 0.00 72 1017.9
20260505110302 39 292 3.0 5.0 0.00 0.00 0.00 72 1017.9
20260505101303 39 292 6.0 8.0 0.00 0.00 0.00 74 1018.2
20260505100302 38 270 3.0 6.0 0.00 0.00 0.00 74 1018.0
20260505095802 38 270 6.0 6.0 0.00 0.00 0.00 75 1018.3
20260505095304 38 270 3.0 5.0 0.00 0.00 0.00 75 1018.3
20260505094803 38 270 3.0 5.0 0.00 0.00 0.00 75 1018.6
20260505094303 38 292 3.0 5.0 0.00 0.00 0.00 74 1018.6
20260505093802 39 315 3.0 7.0 0.00 0.00 0.00 74 1018.6
20260505093302 39 334 5.0 6.0 0.00 0.00 0.00 73 1018.6
20260505092802 39 315 5.0 6.0 0.00 0.00 0.00 71 1018.6
20260505092305 39 359 5.0 7.0 0.00 0.00 0.00 71 1018.6
20260505091803 40 292 6.0 8.0 0.00 0.00 0.00 70 1018.6